Regional Weather Roundup
Issued by NWS State College, PA

Home | Current Version | Previous Version | Graphics & Text | Print | Product List | Glossary On
Versions: 1 2 3 4 5 6 7 8 9 10 11 12 13 14 15 16 17 18 19 20 21 22 23 24 25 26 27 28 29 30 31 32 33 34 35 36 37 38 39 40 41 42 43 44 45 46 47 48 49 50
000
ASUS41 KCTP 040010
RWRCTP

REGIONAL WEATHER ROUNDUP
NATIONAL WEATHER SERVICE STATE COLLEGE PA
700 PM EST SAT DEC 03 2016

Note: "fair" indicates few or no clouds below 12,000 feet with no
significant weather and/or obstructions to visibility.

* = STATION THAT DOES NOT REPORT PRECIPITATION /E.G. RAIN...SNOW...ETC/
    THUNDER OR FOG.

PAZ002>004-007>009-013>016-020>023-029>032-040100-
WESTERN PENNSYLVANIA

CITY           SKY/WX    TMP DP  RH WIND       PRES   REMARKS
ERIE           CLOUDY    42  33  70 NW10      30.25F
MEADVILLE      LGT SNOW  34  31  88 W8        30.24F FOG
FRANKLIN*        N/A     34  28  80 W8        30.25S
NEW CASTLE     CLOUDY    36  31  82 W5        30.29R
BEAVER COUNTY  NOT AVBL
BUTLER*        CLOUDY    36  28  75 W6        30.29S
PITTSBURGH INT CLOUDY    37  29  72 SW6       30.27S
PITTSBURGH     CLOUDY    35  26  69 SW7       30.27R
INDIANA*       CLOUDY    36  30  80 W9        30.27S
LATROBE        CLOUDY    36  28  75 SW12      30.28F
WASHINGTON CO* CLOUDY    36  25  64 W8        30.29S
$$

PAZ004>006-010>012-017>019-024>028-033>037-041-042-045-046-049>053-040100-
CENTRAL PENNSYLVANIA

CITY           SKY/WX    TMP DP  RH WIND       PRES   REMARKS
BRADFORD       LGT SNOW  33  33 100 NW8       30.17S VSB 1
DUBOIS         CLOUDY    35  30  82 W12       30.19F
CLEARFIELD     CLOUDY    38  31  76 W8        30.20F
JOHNSTOWN      CLOUDY    31  28  89 W10       30.19R
ALTOONA        CLOUDY    37  29  72 NW12      30.22S
STATE COLLEGE  CLOUDY    39  30  70 W12G21    30.20S
WILLIAMSPORT   CLOUDY    42  33  70 W10       30.18S
SELINSGROVE    CLOUDY    43  34  70 NW7       30.20S
FT INDIANTOWN  CLOUDY    44  29  57 W14       30.16F
CAPITAL CITY   CLOUDY    46  27  47 W14       30.19S
HARRISBURG     MOCLDY    45  30  55 NW15G24   30.18S
YORK           CLOUDY    43  31  62 W8        30.19S
$$

PAZ038>040-043-044-047-048-054-055-060>062-067>071-040100-
EASTERN PENNSYLVANIA

CITY           SKY/WX    TMP DP  RH WIND       PRES   REMARKS
SCRANTON       CLOUDY    41  27  57 NW12G22   30.14S
MOUNT POCONO   CLOUDY    35  24  64 NW15G24   30.07S
ALLENTOWN      CLOUDY    44  28  53 NW8       30.14F
QUAKERTOWN*    CLOUDY    45  28  53 NW8       30.14F
READING        CLOUDY    44  31  60 NW8       30.15F
LANCASTER      CLOUDY    45  32  60 NW14      30.17S
COATESVILLE    CLOUDY    43  32  65 W9        30.16S
POTTSTOWN      MOCLDY    43  30  60 NW7       30.16S
BLUE BELL      CLOUDY    43  32  65 NW5       30.14R
DOYLESTOWN     CLOUDY    45  29  53 NW6       30.13S
WILLOW GROVE   NOT AVBL
NORTH PHILA    CLOUDY    47  28  47 NW10G17   30.16R
PHILADELPHIA   MOCLDY    47  31  53 NW13      30.16S
$$




USA.gov is the U.S. government's official web portal to all federal, state and local government web resources and services.